Location: Olomouc
(49.5830°N, 17.2500°E)
Time: 19:55:38
(UTC+02:00)

ISS - Pass Details

Date: 13 May 2021
Orbit: 417 x 422 km, 51.6° (Epoch: 14 June)

Event Time Altitude Azimuth Distance (km) Brightness Sun altitude
Rises 03:37:21 0° 288° (WNW) 2,375 -0.2 -12.3°
Reaches altitude 10° 03:39:28 10° 287° (WNW) 1,509 -1.2 -12.1°
Maximum altitude 03:42:50 73° 203° (SSW) 445 -3.8 -11.7°
Drops below altitude 10° 03:46:13 10° 118° (ESE) 1,506 -0.7 -11.3°
Sets 03:48:19 0° 116° (ESE) 2,369 0.3 -11.1°
